Tracking 27422 objects as of 31-May-2023
HD Live streaming from Space Station
objects crossing your sky now

WESTFORD NEEDLES

Track WESTFORD NEEDLES now!
10-day predictions
WESTFORD NEEDLES is classified as:


NORAD ID: 21660
Int'l Code: 1963-014FG
Perigee: 1,977.2 km
Apogee: 5,123.2 km
Inclination: 86.6 °
Period: 163.9 minutes
Semi major axis: 9921 km
RCS: 0.1099 m2 (medium)
Launch date: May 9, 1963
Source: United States (US)
Launch site: AIR FORCE WESTERN TEST RANGE (AFWTR)
Your satellite tracking list
Your tracking list is empty




NASA's NSSDC Master Catalog

Two Line Element Set (TLE):
1 21660U 63014FG  23149.18425279  .00003690  00000-0  41749+0 0  9998
2 21660  86.5655  47.4017 1585479 167.4648 351.6162  8.78532228970050
Source of the keplerian elements: AFSPC